Precipitable_Water
0.46 0.45 0.45 0.45 0.44 0.43 0.43 0.42 0.43 0.44 0.46 0.46 0.45 0.44 0.43 0.40 0.39 0.39 0.40 0.40 0.39 0.37 0.35 0.36 0.37 0.36 0.36 0.37 0.39 0.41 0.43 0.35 0.31 0.32 0.30 0.27 0.29 0.28 0.47 0.58 0.65 0.72 0.75 0.56 0.58 0.48 0.39 0.44 0.59 0.86 1.13 1.29 1.32 1.33 1.51 1.58 1.68 1.56 1.23 1.13 1.01 1.09 1.08 1.25 1.28 1.37 1.52 1.43 1.49 1.58 1.66 1.58 1.48 1.66 1.72 1.85 1.67 1.62 1.55 1.48 1.45 1.44 1.41 1.40 1.34 1.32 1.23 1.25
0.49 0.47 0.46 0.45 0.45 0.44 0.44 0.43 0.43 0.44 0.46 0.46 0.46 0.45 0.43 0.40 0.39 0.39 0.39 0.39 0.39 0.36 0.36 0.38 0.38 0.38 0.39 0.39 0.41 0.44 0.40 0.35 0.40 0.42 0.31 0.37 0.30 0.30 0.55 0.63 0.74 0.73 0.70 0.47 0.38 0.34 0.31 0.38 0.58 0.79 0.93 1.01 1.40 1.24 1.52 1.38 1.67 1.31 1.20 1.16 0.98 1.14 1.22 1.40 1.45 1.50 1.47 1.47 1.58 1.61 1.66 1.60 1.55 1.65 1.71 1.53 1.50 1.53 1.41 1.42 1.42 1.32 1.40 1.45 1.38 1.26 1.22 1.24
0.52 0.50 0.48 0.46 0.45 0.44 0.44 0.44 0.44 0.44 0.46 0.47 0.47 0.45 0.44 0.41 0.40 0.39 0.39 0.38 0.38 0.36 0.36 0.38 0.40 0.41 0.39 0.40 0.42 0.46 0.39 0.41 0.49 0.34 0.40 0.45 0.34 0.39 0.56 0.65 0.73 0.74 0.56 0.40 0.42 0.35 0.30 0.39 0.61 0.78 0.85 0.96 1.18 1.15 1.35 1.32 1.49 1.42 1.23 1.04 1.07 1.25 1.35 1.45 1.51 1.50 1.63 1.63 1.57 1.56 1.66 1.59 1.65 1.67 1.77 1.51 1.45 1.50 1.37 1.29 1.34 1.27 1.25 1.30 1.26 1.24 1.23 1.22
0.55 0.53 0.51 0.49 0.47 0.45 0.44 0.44 0.44 0.44 0.46 0.48 0.48 0.47 0.44 0.43 0.40 0.38 0.39 0.38 0.38 0.35 0.36 0.39 0.41 0.41 0.40 0.40 0.45 0.45 0.43 0.43 0.35 0.38 0.49 0.45 0.44 0.44 0.52 0.67 0.69 0.69 0.56 0.44 0.46 0.39 0.43 0.54 0.77 0.89 0.87 0.95 1.06 1.21 1.08 1.25 1.22 1.38 1.26 1.07 1.11 1.27 1.26 1.39 1.53 1.57 1.63 1.70 1.61 1.59 1.70 1.60 1.66 1.72 1.67 1.57 1.40 1.41 1.42 1.46 1.34 1.28 1.26 1.26 1.22 1.22 1.23 1.19
0.57 0.55 0.52 0.52 0.49 0.47 0.45 0.45 0.44 0.44 0.45 0.47 0.48 0.48 0.46 0.44 0.41 0.39 0.39 0.39 0.37 0.35 0.36 0.39 0.41 0.40 0.41 0.44 0.44 0.44 0.43 0.28 0.37 0.56 0.57 0.48 0.50 0.50 0.51 0.64 0.71 0.65 0.49 0.38 0.41 0.41 0.46 0.52 0.77 0.94 0.92 0.83 0.96 1.01 1.04 1.19 1.36 1.35 1.18 1.24 1.26 1.33 1.23 1.44 1.50 1.60 1.61 1.71 1.63 1.60 1.51 1.54 1.81 1.75 1.64 1.56 1.32 1.27 1.40 1.50 1.50 1.48 1.40 1.27 1.17 1.19 1.20 1.16
0.59 0.56 0.53 0.52 0.51 0.48 0.47 0.46 0.45 0.44 0.44 0.45 0.48 0.48 0.47 0.45 0.42 0.40 0.39 0.39 0.38 0.35 0.35 0.39 0.41 0.40 0.43 0.45 0.43 0.38 0.26 0.13 0.51 0.54 0.66 0.53 0.52 0.53 0.53 0.62 0.72 0.63 0.48 0.31 0.32 0.36 0.42 0.48 0.65 0.75 0.78 0.77 0.83 0.84 1.04 1.17 1.32 1.03 1.19 1.27 1.31 1.34 1.25 1.43 1.48 1.54 1.63 1.61 1.54 1.44 1.59 1.73 1.64 1.60 1.69 1.60 1.47 1.55 1.67 1.65 1.57 1.54 1.49 1.39 1.31 1.21 1.14 1.12
0.57 0.56 0.53 0.53 0.52 0.50 0.47 0.47 0.46 0.45 0.44 0.44 0.46 0.47 0.47 0.45 0.44 0.42 0.40 0.39 0.38 0.35 0.35 0.37 0.40 0.43 0.44 0.46 0.42 0.34 0.23 0.33 0.52 0.58 0.67 0.62 0.52 0.53 0.55 0.63 0.75 0.59 0.48 0.30 0.28 0.33 0.42 0.44 0.50 0.54 0.64 0.70 0.84 0.94 1.08 1.14 1.23 1.14 1.01 1.16 1.19 1.31 1.27 1.42 1.43 1.59 1.55 1.61 1.50 1.63 1.72 1.53 1.56 1.42 1.70 1.57 1.68 1.75 1.75 1.71 1.62 1.55 1.49 1.41 1.27 1.24 1.12 1.08
0.55 0.54 0.52 0.52 0.52 0.51 0.49 0.48 0.47 0.46 0.44 0.44 0.45 0.46 0.46 0.45 0.44 0.43 0.41 0.40 0.38 0.36 0.34 0.37 0.40 0.44 0.46 0.34 0.23 0.21 0.25 0.30 0.50 0.60 0.66 0.69 0.60 0.57 0.59 0.60 0.66 0.60 0.49 0.32 0.27 0.32 0.45 0.45 0.45 0.62 0.63 0.67 0.86 0.98 1.09 1.08 1.13 1.01 0.99 1.08 1.12 1.22 1.28 1.37 1.47 1.52 1.57 1.61 1.67 1.65 1.52 1.51 1.62 1.59 1.65 1.60 1.72 1.75 1.79 1.77 1.63 1.52 1.42 1.39 1.30 1.24 1.20 1.15
0.53 0.52 0.51 0.51 0.51 0.51 0.49 0.48 0.47 0.46 0.45 0.45 0.46 0.46 0.46 0.46 0.44 0.43 0.43 0.41 0.39 0.37 0.35 0.36 0.40 0.46 0.47 0.33 0.24 0.20 0.19 0.37 0.53 0.62 0.65 0.64 0.66 0.61 0.60 0.49 0.59 0.55 0.50 0.38 0.31 0.37 0.45 0.45 0.66 0.73 0.61 0.75 0.94 0.89 0.98 0.97 0.89 1.03 0.99 1.03 1.05 1.06 1.18 1.29 1.38 1.47 1.53 1.59 1.65 1.54 1.53 1.61 1.68 1.77 1.56 1.59 1.73 1.78 1.81 1.73 1.62 1.48 1.36 1.32 1.29 1.26 1.18 1.13
0.51 0.50 0.50 0.50 0.49 0.49 0.48 0.47 0.46 0.45 0.45 0.45 0.47 0.47 0.46 0.45 0.44 0.43 0.43 0.41 0.39 0.38 0.35 0.37 0.44 0.50 0.39 0.32 0.29 0.19 0.31 0.44 0.51 0.61 0.60 0.62 0.65 0.62 0.53 0.50 0.51 0.50 0.48 0.40 0.33 0.38 0.42 0.59 0.69 0.83 0.86 0.83 0.89 0.84 0.95 0.93 0.90 1.02 0.94 0.89 0.86 0.94 1.10 1.25 1.24 1.40 1.54 1.53 1.57 1.45 1.44 1.49 1.72 1.65 1.37 1.69 1.75 1.78 1.73 1.65 1.60 1.44 1.32 1.32 1.29 1.27 1.22 1.14
0.50 0.49 0.49 0.48 0.48 0.47 0.46 0.45 0.45 0.45 0.45 0.45 0.46 0.47 0.47 0.46 0.45 0.44 0.43 0.42 0.39 0.37 0.35 0.39 0.49 0.48 0.34 0.36 0.21 0.21 0.43 0.45 0.52 0.58 0.54 0.56 0.58 0.52 0.44 0.48 0.48 0.47 0.50 0.43 0.35 0.42 0.58 0.73 0.81 0.81 0.83 0.77 0.81 0.78 0.82 0.87 0.94 0.89 0.84 0.82 0.80 0.88 1.03 1.17 1.28 1.37 1.50 1.44 1.54 1.52 1.42 1.55 1.63 1.60 1.44 1.61 1.76 1.78 1.64 1.61 1.53 1.42 1.33 1.31 1.29 1.27 1.25 1.20
0.50 0.49 0.48 0.47 0.47 0.46 0.44 0.44 0.44 0.44 0.45 0.45 0.46 0.48 0.47 0.46 0.46 0.44 0.43 0.41 0.39 0.37 0.36 0.41 0.53 0.46 0.48 0.37 0.26 0.30 0.49 0.47 0.56 0.57 0.55 0.52 0.48 0.48 0.48 0.51 0.50 0.43 0.49 0.42 0.36 0.46 0.61 0.66 0.73 0.75 0.66 0.83 0.67 0.76 0.77 0.85 0.86 0.84 0.83 0.71 0.89 0.94 0.96 1.17 1.18 1.33 1.43 1.34 1.54 1.58 1.36 1.32 1.40 1.34 1.58 1.68 1.77 1.72 1.63 1.57 1.50 1.39 1.34 1.31 1.28 1.28 1.27 1.21
0.51 0.50 0.49 0.47 0.47 0.46 0.45 0.45 0.44 0.44 0.44 0.45 0.47 0.47 0.47 0.47 0.46 0.45 0.43 0.41 0.39 0.36 0.39 0.45 0.54 0.55 0.46 0.26 0.29 0.41 0.52 0.52 0.50 0.57 0.57 0.52 0.51 0.57 0.53 0.57 0.57 0.51 0.50 0.46 0.33 0.46 0.57 0.68 0.73 0.70 0.82 0.74 0.68 0.61 0.78 0.85 0.80 0.80 0.76 0.74 0.87 0.89 0.89 1.15 1.30 1.37 1.33 1.37 1.55 1.47 0.96 1.11 1.25 1.44 1.60 1.74 1.73 1.71 1.59 1.54 1.47 1.38 1.32 1.29 1.26 1.23 1.25 1.25
0.52 0.51 0.50 0.49 0.48 0.46 0.46 0.46 0.46 0.45 0.45 0.46 0.47 0.47 0.48 0.48 0.46 0.45 0.43 0.41 0.40 0.38 0.42 0.51 0.54 0.51 0.44 0.26 0.36 0.51 0.49 0.51 0.48 0.50 0.52 0.60 0.44 0.46 0.56 0.63 0.63 0.55 0.56 0.46 0.41 0.54 0.71 0.77 0.76 0.77 0.77 0.65 0.64 0.84 0.72 0.70 0.74 0.64 0.67 0.76 0.74 0.76 0.74 1.10 1.18 1.30 1.19 1.43 1.47 1.42 0.99 1.06 1.23 1.46 1.60 1.70 1.73 1.65 1.51 1.51 1.45 1.37 1.32 1.27 1.24 1.22 1.20 1.22
0.53 0.52 0.52 0.51 0.50 0.49 0.48 0.48 0.47 0.47 0.47 0.46 0.47 0.48 0.50 0.47 0.46 0.45 0.45 0.42 0.42 0.43 0.46 0.54 0.60 0.45 0.34 0.32 0.50 0.53 0.56 0.55 0.34 0.32 0.47 0.47 0.38 0.39 0.47 0.60 0.56 0.53 0.54 0.46 0.51 0.69 0.77 0.76 0.68 0.58 0.56 0.77 0.79 0.68 0.59 0.60 0.63 0.63 0.55 0.50 0.79 0.69 0.78 1.01 1.23 1.22 1.03 1.28 1.45 1.30 1.00 1.06 1.20 1.39 1.57 1.64 1.65 1.63 1.50 1.50 1.46 1.37 1.34 1.26 1.23 1.21 1.20 1.20
0.54 0.53 0.53 0.52 0.52 0.52 0.50 0.49 0.48 0.47 0.48 0.48 0.49 0.49 0.50 0.50 0.48 0.47 0.48 0.44 0.46 0.47 0.52 0.44 0.57 0.57 0.39 0.28 0.43 0.54 0.43 0.29 0.25 0.32 0.36 0.38 0.37 0.35 0.48 0.56 0.58 0.54 0.47 0.46 0.64 0.73 0.79 0.73 0.55 0.56 0.63 0.72 0.64 0.56 0.52 0.51 0.53 0.56 0.51 0.47 0.61 0.70 0.77 0.89 1.11 1.22 1.24 1.23 1.33 1.19 0.94 1.06 1.14 1.41 1.56 1.62 1.61 1.59 1.49 1.47 1.47 1.38 1.37 1.30 1.23 1.21 1.21 1.21
0.55 0.54 0.53 0.52 0.52 0.52 0.52 0.50 0.48 0.48 0.49 0.50 0.51 0.49 0.51 0.54 0.56 0.55 0.53 0.53 0.52 0.55 0.47 0.39 0.57 0.61 0.32 0.49 0.56 0.43 0.31 0.32 0.33 0.27 0.31 0.30 0.29 0.34 0.44 0.49 0.48 0.47 0.44 0.51 0.65 0.73 0.71 0.60 0.64 0.63 0.65 0.56 0.55 0.54 0.42 0.38 0.40 0.45 0.51 0.48 0.52 0.54 0.76 0.74 1.02 1.19 1.22 1.18 1.03 1.19 1.02 1.03 1.18 1.35 1.50 1.57 1.59 1.58 1.48 1.45 1.46 1.42 1.38 1.33 1.29 1.23 1.20 1.18
0.54 0.54 0.53 0.52 0.52 0.52 0.52 0.50 0.49 0.48 0.50 0.51 0.51 0.48 0.49 0.57 0.62 0.60 0.59 0.59 0.60 0.56 0.53 0.65 0.62 0.50 0.33 0.41 0.28 0.26 0.30 0.29 0.28 0.25 0.25 0.28 0.28 0.30 0.34 0.44 0.49 0.48 0.48 0.53 0.64 0.60 0.62 0.56 0.66 0.49 0.49 0.46 0.46 0.42 0.33 0.27 0.36 0.40 0.45 0.46 0.49 0.53 0.63 0.69 0.75 0.95 1.09 1.13 1.00 1.06 1.03 1.03 1.15 1.30 1.41 1.48 1.56 1.52 1.45 1.44 1.45 1.43 1.40 1.36 1.32 1.27 1.20 1.19
0.56 0.55 0.54 0.53 0.53 0.52 0.52 0.51 0.50 0.50 0.51 0.53 0.53 0.53 0.55 0.60 0.61 0.59 0.49 0.48 0.38 0.32 0.25 0.33 0.42 0.27 0.18 0.29 0.37 0.36 0.31 0.25 0.27 0.27 0.23 0.24 0.25 0.29 0.31 0.41 0.48 0.45 0.43 0.47 0.51 0.55 0.63 0.59 0.58 0.46 0.35 0.35 0.37 0.38 0.35 0.38 0.42 0.41 0.45 0.47 0.49 0.48 0.52 0.58 0.75 0.89 0.87 0.84 0.87 0.92 0.86 0.93 1.07 1.19 1.36 1.43 1.48 1.43 1.44 1.48 1.46 1.45 1.42 1.37 1.33 1.31 1.23 1.18
0.61 0.60 0.58 0.57 0.55 0.54 0.51 0.51 0.50 0.51 0.54 0.50 0.45 0.44 0.38 0.29 0.29 0.35 0.45 0.42 0.31 0.30 0.30 0.36 0.45 0.48 0.38 0.36 0.32 0.31 0.29 0.27 0.23 0.23 0.25 0.27 0.27 0.28 0.30 0.38 0.41 0.45 0.43 0.36 0.44 0.50 0.61 0.44 0.38 0.33 0.36 0.39 0.40 0.42 0.42 0.44 0.44 0.44 0.45 0.46 0.47 0.50 0.52 0.58 0.61 0.71 0.89 0.80 0.77 0.79 0.82 0.87 0.97 1.10 1.24 1.37 1.44 1.39 1.36 1.36 1.39 1.43 1.40 1.38 1.34 1.31 1.28 1.22
0.61 0.61 0.60 0.59 0.57 0.56 0.53 0.50 0.49 0.52 0.56 0.54 0.47 0.35 0.25 0.27 0.22 0.21 0.30 0.31 0.32 0.36 0.34 0.34 0.37 0.38 0.31 0.31 0.31 0.28 0.23 0.22 0.25 0.24 0.28 0.33 0.29 0.30 0.29 0.34 0.33 0.31 0.35 0.42 0.42 0.56 0.59 0.40 0.36 0.41 0.44 0.45 0.44 0.44 0.42 0.43 0.44 0.41 0.40 0.41 0.41 0.46 0.47 0.56 0.57 0.64 0.79 0.72 0.67 0.83 0.86 0.88 0.94 1.09 1.22 1.36 1.38 1.27 1.28 1.30 1.36 1.40 1.42 1.42 1.38 1.33 1.31 1.30
0.62 0.61 0.60 0.59 0.59 0.57 0.55 0.50 0.47 0.52 0.58 0.53 0.43 0.33 0.35 0.36 0.39 0.41 0.36 0.26 0.28 0.32 0.38 0.36 0.35 0.34 0.33 0.31 0.29 0.29 0.26 0.21 0.24 0.25 0.28 0.30 0.27 0.26 0.31 0.32 0.28 0.25 0.32 0.39 0.43 0.43 0.41 0.34 0.37 0.45 0.53 0.53 0.49 0.43 0.41 0.38 0.39 0.40 0.37 0.38 0.38 0.40 0.47 0.53 0.55 0.62 0.69 0.72 0.66 0.81 0.81 0.89 1.00 1.09 1.22 1.27 1.28 1.31 1.34 1.33 1.35 1.39 1.40 1.42 1.42 1.38 1.35 1.37
0.64 0.63 0.61 0.61 0.59 0.58 0.55 0.51 0.45 0.54 0.53 0.44 0.36 0.37 0.36 0.44 0.47 0.45 0.39 0.31 0.23 0.28 0.31 0.30 0.26 0.26 0.25 0.27 0.25 0.25 0.21 0.20 0.22 0.27 0.29 0.31 0.25 0.27 0.33 0.31 0.28 0.29 0.31 0.36 0.32 0.35 0.31 0.33 0.42 0.50 0.52 0.48 0.45 0.42 0.37 0.35 0.37 0.36 0.34 0.32 0.31 0.39 0.39 0.38 0.45 0.66 0.73 0.74 0.69 0.77 0.77 0.87 1.06 1.22 1.25 1.33 1.35 1.35 1.40 1.42 1.44 1.47 1.42 1.41 1.41 1.40 1.38 1.35
0.63 0.64 0.63 0.62 0.61 0.57 0.56 0.50 0.48 0.49 0.46 0.44 0.42 0.39 0.48 0.48 0.45 0.44 0.34 0.22 0.18 0.21 0.24 0.26 0.27 0.25 0.24 0.21 0.22 0.23 0.20 0.22 0.26 0.27 0.36 0.32 0.28 0.33 0.35 0.36 0.31 0.33 0.27 0.33 0.35 0.33 0.28 0.33 0.41 0.40 0.41 0.41 0.37 0.38 0.36 0.30 0.25 0.30 0.31 0.31 0.34 0.37 0.40 0.41 0.39 0.66 0.73 0.79 0.88 0.83 0.78 0.79 0.92 1.01 1.10 1.28 1.42 1.39 1.38 1.40 1.43 1.49 1.50 1.51 1.51 1.48 1.46 1.40
0.62 0.63 0.64 0.64 0.61 0.60 0.54 0.50 0.39 0.41 0.48 0.45 0.43 0.50 0.54 0.50 0.46 0.43 0.30 0.23 0.21 0.20 0.32 0.27 0.29 0.26 0.25 0.27 0.24 0.21 0.23 0.25 0.26 0.29 0.36 0.33 0.34 0.39 0.36 0.40 0.36 0.34 0.34 0.34 0.36 0.34 0.31 0.37 0.43 0.39 0.36 0.36 0.35 0.33 0.34 0.33 0.25 0.23 0.26 0.29 0.35 0.40 0.39 0.40 0.39 0.49 0.47 0.53 0.76 0.74 0.57 0.58 0.82 0.91 1.03 1.24 1.27 1.24 1.33 1.30 1.30 1.38 1.44 1.46 1.43 1.43 1.48 1.50
0.61 0.62 0.64 0.64 0.63 0.60 0.55 0.37 0.39 0.47 0.44 0.39 0.45 0.53 0.53 0.53 0.48 0.41 0.30 0.19 0.13 0.20 0.24 0.19 0.28 0.23 0.27 0.22 0.23 0.23 0.23 0.21 0.27 0.29 0.36 0.33 0.34 0.36 0.36 0.31 0.38 0.30 0.36 0.37 0.38 0.36 0.31 0.42 0.42 0.39 0.38 0.36 0.36 0.32 0.34 0.37 0.30 0.26 0.21 0.27 0.35 0.39 0.39 0.36 0.34 0.33 0.34 0.34 0.57 0.73 0.51 0.48 0.77 0.82 0.95 1.09 1.16 1.17 1.26 1.23 1.25 1.32 1.37 1.41 1.40 1.42 1.44 1.46
0.61 0.61 0.63 0.64 0.64 0.62 0.40 0.31 0.49 0.47 0.36 0.40 0.52 0.55 0.52 0.50 0.50 0.39 0.25 0.16 0.14 0.20 0.20 0.25 0.26 0.25 0.25 0.22 0.22 0.22 0.15 0.18 0.26 0.30 0.30 0.28 0.24 0.25 0.26 0.26 0.33 0.32 0.27 0.30 0.32 0.27 0.35 0.36 0.39 0.41 0.38 0.36 0.33 0.30 0.35 0.36 0.31 0.25 0.30 0.29 0.32 0.35 0.35 0.33 0.31 0.29 0.28 0.41 0.54 0.62 0.60 0.54 0.61 0.74 0.99 1.12 1.08 1.10 1.12 1.15 1.19 1.25 1.32 1.38 1.42 1.42 1.42 1.45
0.60 0.61 0.62 0.64 0.64 0.61 0.46 0.46 0.46 0.39 0.39 0.46 0.54 0.52 0.52 0.47 0.44 0.37 0.25 0.09 0.13 0.26 0.22 0.22 0.24 0.27 0.23 0.21 0.22 0.21 0.21 0.23 0.21 0.24 0.30 0.32 0.31 0.23 0.23 0.23 0.29 0.29 0.27 0.25 0.18 0.28 0.30 0.26 0.28 0.28 0.30 0.32 0.30 0.32 0.36 0.38 0.32 0.28 0.32 0.33 0.29 0.31 0.34 0.33 0.30 0.28 0.29 0.27 0.29 0.45 0.62 0.52 0.57 0.70 0.89 1.04 0.99 1.02 1.00 1.03 1.09 1.17 1.26 1.35 1.40 1.44 1.44 1.46
0.60 0.61 0.62 0.63 0.62 0.60 0.59 0.49 0.45 0.37 0.46 0.50 0.50 0.50 0.48 0.45 0.37 0.28 0.20 0.12 0.27 0.26 0.30 0.20 0.29 0.25 0.23 0.24 0.21 0.21 0.21 0.22 0.20 0.23 0.29 0.31 0.31 0.22 0.17 0.23 0.29 0.29 0.28 0.27 0.23 0.26 0.28 0.26 0.26 0.27 0.25 0.26 0.30 0.33 0.34 0.34 0.28 0.32 0.37 0.36 0.33 0.32 0.34 0.33 0.30 0.28 0.28 0.25 0.22 0.32 0.47 0.41 0.50 0.69 0.79 0.94 0.91 0.89 0.93 1.00 1.07 1.13 1.21 1.30 1.36 1.43 1.47 1.48
0.60 0.60 0.61 0.61 0.59 0.56 0.55 0.57 0.48 0.50 0.50 0.49 0.49 0.48 0.44 0.36 0.33 0.22 0.14 0.11 0.27 0.19 0.25 0.24 0.24 0.22 0.23 0.21 0.20 0.21 0.19 0.19 0.22 0.25 0.28 0.26 0.25 0.25 0.24 0.27 0.26 0.27 0.25 0.26 0.27 0.27 0.27 0.31 0.30 0.26 0.25 0.26 0.27 0.29 0.31 0.32 0.32 0.36 0.36 0.33 0.31 0.30 0.31 0.33 0.31 0.29 0.25 0.20 0.20 0.30 0.42 0.45 0.42 0.59 0.72 0.76 0.75 0.80 0.88 0.99 1.11 1.18 1.23 1.30 1.36 1.40 1.44 1.46
0.62 0.61 0.60 0.62 0.50 0.52 0.51 0.42 0.46 0.50 0.51 0.50 0.48 0.42 0.37 0.36 0.27 0.21 0.11 0.19 0.26 0.24 0.27 0.24 0.23 0.25 0.21 0.19 0.19 0.21 0.21 0.20 0.20 0.23 0.21 0.25 0.22 0.23 0.21 0.20 0.26 0.24 0.21 0.19 0.23 0.26 0.28 0.28 0.26 0.26 0.28 0.28 0.29 0.29 0.33 0.34 0.33 0.31 0.30 0.29 0.27 0.25 0.29 0.28 0.28 0.28 0.21 0.18 0.21 0.27 0.39 0.49 0.35 0.44 0.72 0.82 0.87 0.85 0.85 0.87 0.97 1.08 1.15 1.21 1.28 1.35 1.42 1.47
0.62 0.62 0.62 0.60 0.60 0.63 0.43 0.39 0.47 0.51 0.51 0.51 0.45 0.36 0.35 0.20 0.23 0.15 0.15 0.29 0.18 0.23 0.24 0.23 0.25 0.22 0.21 0.20 0.20 0.20 0.19 0.20 0.22 0.22 0.20 0.22 0.20 0.20 0.20 0.18 0.19 0.15 0.15 0.16 0.15 0.23 0.23 0.26 0.29 0.26 0.30 0.28 0.27 0.27 0.29 0.32 0.31 0.28 0.26 0.26 0.20 0.20 0.20 0.19 0.23 0.19 0.19 0.18 0.22 0.23 0.38 0.42 0.39 0.39 0.55 0.72 0.78 0.81 0.84 0.87 0.93 1.02 1.12 1.22 1.29 1.35 1.41 1.46
0.64 0.64 0.64 0.63 0.65 0.57 0.57 0.57 0.58 0.53 0.54 0.50 0.41 0.39 0.30 0.20 0.12 0.19 0.21 0.23 0.20 0.26 0.23 0.27 0.24 0.23 0.22 0.21 0.20 0.21 0.22 0.19 0.23 0.22 0.23 0.23 0.22 0.23 0.25 0.24 0.22 0.20 0.12 0.14 0.16 0.16 0.20 0.26 0.27 0.26 0.28 0.31 0.28 0.24 0.25 0.26 0.28 0.27 0.24 0.23 0.20 0.17 0.16 0.16 0.19 0.21 0.21 0.22 0.25 0.25 0.39 0.36 0.42 0.43 0.44 0.48 0.61 0.68 0.75 0.84 0.94 1.03 1.12 1.19 1.27 1.36 1.42 1.45
0.68 0.69 0.64 0.66 0.65 0.63 0.62 0.64 0.62 0.60 0.53 0.52 0.43 0.35 0.25 0.15 0.14 0.25 0.22 0.23 0.23 0.28 0.27 0.25 0.25 0.24 0.23 0.20 0.21 0.22 0.20 0.25 0.23 0.21 0.22 0.20 0.20 0.20 0.23 0.25 0.25 0.21 0.21 0.16 0.14 0.17 0.14 0.18 0.23 0.25 0.24 0.30 0.28 0.27 0.28 0.26 0.28 0.27 0.28 0.25 0.23 0.21 0.18 0.15 0.18 0.16 0.18 0.20 0.22 0.26 0.21 0.18 0.20 0.21 0.27 0.36 0.45 0.53 0.64 0.77 0.91 1.02 1.12 1.21 1.30 1.37 1.42 1.45
0.68 0.68 0.67 0.66 0.66 0.64 0.63 0.65 0.66 0.67 0.60 0.46 0.32 0.24 0.17 0.17 0.20 0.19 0.20 0.23 0.25 0.26 0.25 0.27 0.24 0.22 0.21 0.23 0.24 0.24 0.24 0.21 0.25 0.22 0.20 0.18 0.18 0.20 0.20 0.21 0.25 0.25 0.23 0.15 0.18 0.18 0.18 0.21 0.25 0.29 0.29 0.29 0.27 0.30 0.31 0.31 0.30 0.30 0.29 0.29 0.23 0.22 0.27 0.19 0.22 0.21 0.21 0.21 0.21 0.22 0.20 0.22 0.21 0.25 0.33 0.47 0.41 0.45 0.62 0.74 0.87 0.98 1.12 1.23 1.29 1.31 1.35 1.39
0.69 0.65 0.69 0.58 0.57 0.58 0.68 0.71 0.72 0.68 0.51 0.35 0.25 0.19 0.18 0.21 0.19 0.24 0.23 0.28 0.26 0.24 0.25 0.25 0.23 0.21 0.21 0.22 0.24 0.23 0.26 0.23 0.24 0.22 0.22 0.21 0.23 0.20 0.23 0.23 0.23 0.25 0.22 0.17 0.20 0.15 0.19 0.19 0.26 0.29 0.30 0.28 0.28 0.31 0.30 0.33 0.24 0.29 0.27 0.22 0.24 0.29 0.26 0.22 0.24 0.28 0.26 0.22 0.20 0.26 0.23 0.24 0.28 0.28 0.48 0.51 0.47 0.54 0.62 0.65 0.75 0.87 1.01 1.12 1.17 1.23 1.27 1.34
0.63 0.67 0.54 0.57 0.59 0.69 0.73 0.74 0.71 0.60 0.47 0.35 0.26 0.20 0.25 0.25 0.27 0.26 0.28 0.26 0.25 0.25 0.24 0.20 0.21 0.21 0.20 0.20 0.21 0.22 0.24 0.23 0.23 0.22 0.19 0.25 0.22 0.24 0.23 0.24 0.28 0.26 0.27 0.23 0.21 0.26 0.18 0.19 0.26 0.27 0.26 0.29 0.31 0.32 0.32 0.33 0.34 0.31 0.24 0.27 0.31 0.32 0.29 0.23 0.18 0.20 0.20 0.17 0.19 0.23 0.21 0.22 0.24 0.20 0.46 0.50 0.49 0.50 0.56 0.66 0.79 0.85 0.88 0.94 1.04 1.14 1.22 1.27
0.64 0.59 0.58 0.57 0.62 0.72 0.73 0.71 0.65 0.54 0.44 0.33 0.26 0.25 0.28 0.25 0.30 0.29 0.30 0.27 0.26 0.26 0.22 0.21 0.23 0.25 0.21 0.20 0.19 0.21 0.22 0.20 0.22 0.22 0.20 0.22 0.19 0.29 0.25 0.24 0.28 0.27 0.27 0.28 0.22 0.24 0.24 0.17 0.22 0.27 0.28 0.29 0.31 0.31 0.30 0.32 0.35 0.32 0.31 0.36 0.27 0.21 0.19 0.24 0.20 0.15 0.15 0.15 0.17 0.20 0.23 0.31 0.32 0.33 0.44 0.50 0.54 0.57 0.60 0.70 0.67 0.75 0.89 0.85 0.87 0.95 1.08 1.22
0.65 0.58 0.44 0.54 0.66 0.71 0.71 0.69 0.59 0.48 0.39 0.30 0.29 0.26 0.29 0.29 0.32 0.30 0.31 0.31 0.29 0.26 0.22 0.24 0.22 0.24 0.23 0.20 0.22 0.22 0.22 0.18 0.22 0.21 0.18 0.22 0.18 0.28 0.26 0.27 0.25 0.28 0.28 0.27 0.22 0.24 0.25 0.18 0.19 0.26 0.26 0.28 0.29 0.26 0.22 0.25 0.30 0.36 0.39 0.34 0.36 0.31 0.26 0.21 0.21 0.22 0.19 0.15 0.16 0.16 0.20 0.30 0.39 0.41 0.50 0.60 0.67 0.67 0.64 0.65 0.69 0.71 0.73 0.86 0.84 0.83 0.91 1.06
0.56 0.50 0.40 0.59 0.68 0.68 0.70 0.65 0.53 0.45 0.37 0.30 0.31 0.31 0.34 0.31 0.33 0.34 0.33 0.31 0.29 0.27 0.25 0.25 0.25 0.23 0.24 0.23 0.23 0.21 0.24 0.23 0.22 0.22 0.21 0.25 0.22 0.30 0.27 0.30 0.26 0.27 0.28 0.27 0.23 0.25 0.21 0.23 0.17 0.22 0.27 0.25 0.22 0.24 0.22 0.24 0.25 0.27 0.30 0.29 0.29 0.29 0.35 0.32 0.28 0.23 0.20 0.18 0.18 0.16 0.18 0.31 0.42 0.52 0.60 0.69 0.77 0.76 0.73 0.67 0.68 0.71 0.68 0.68 0.84 0.87 0.84 0.92
0.62 0.48 0.44 0.60 0.66 0.69 0.64 0.54 0.45 0.38 0.35 0.37 0.37 0.34 0.34 0.32 0.33 0.33 0.34 0.34 0.34 0.36 0.30 0.28 0.27 0.24 0.24 0.24 0.23 0.26 0.24 0.25 0.25 0.23 0.24 0.25 0.25 0.21 0.30 0.30 0.30 0.26 0.28 0.26 0.23 0.23 0.18 0.19 0.15 0.21 0.20 0.20 0.22 0.26 0.26 0.29 0.29 0.28 0.30 0.28 0.29 0.26 0.25 0.21 0.20 0.28 0.26 0.21 0.19 0.18 0.18 0.32 0.48 0.60 0.67 0.79 0.83 0.83 0.80 0.74 0.69 0.70 0.68 0.61 0.68 0.83 0.91 0.86
0.46 0.36 0.40 0.59 0.64 0.62 0.51 0.39 0.41 0.43 0.37 0.34 0.34 0.36 0.35 0.38 0.34 0.35 0.35 0.35 0.34 0.33 0.37 0.34 0.33 0.30 0.28 0.27 0.27 0.27 0.26 0.25 0.26 0.25 0.27 0.24 0.29 0.28 0.30 0.34 0.31 0.32 0.27 0.24 0.24 0.27 0.26 0.22 0.16 0.16 0.19 0.19 0.21 0.27 0.32 0.33 0.33 0.30 0.29 0.29 0.31 0.29 0.28 0.24 0.19 0.22 0.26 0.27 0.29 0.27 0.21 0.28 0.52 0.64 0.75 0.83 0.86 0.86 0.84 0.78 0.73 0.73 0.70 0.60 0.63 0.73 0.82 0.90
0.44 0.38 0.52 0.60 0.61 0.55 0.43 0.35 0.36 0.35 0.34 0.37 0.40 0.38 0.39 0.38 0.36 0.36 0.34 0.34 0.30 0.34 0.33 0.33 0.33 0.30 0.31 0.29 0.28 0.27 0.28 0.25 0.27 0.25 0.28 0.28 0.28 0.31 0.33 0.33 0.34 0.31 0.31 0.25 0.30 0.26 0.28 0.18 0.14 0.15 0.19 0.23 0.26 0.29 0.31 0.30 0.30 0.28 0.28 0.29 0.31 0.29 0.28 0.25 0.25 0.28 0.25 0.28 0.24 0.25 0.20 0.29 0.45 0.57 0.75 0.85 0.93 0.91 0.88 0.82 0.76 0.77 0.76 0.66 0.63 0.74 0.78 0.79
0.48 0.45 0.46 0.55 0.59 0.51 0.38 0.29 0.28 0.30 0.31 0.34 0.33 0.33 0.37 0.36 0.34 0.31 0.30 0.31 0.29 0.30 0.30 0.31 0.33 0.36 0.32 0.34 0.30 0.27 0.30 0.22 0.30 0.29 0.27 0.30 0.27 0.36 0.35 0.34 0.35 0.30 0.29 0.26 0.22 0.24 0.17 0.20 0.16 0.11 0.12 0.17 0.21 0.25 0.24 0.26 0.27 0.27 0.27 0.28 0.29 0.32 0.30 0.30 0.33 0.33 0.28 0.29 0.26 0.23 0.18 0.25 0.37 0.52 0.68 0.79 0.86 0.83 0.80 0.83 0.80 0.74 0.78 0.83 0.85 0.87 0.91 0.95
0.48 0.51 0.51 0.50 0.55 0.48 0.35 0.35 0.32 0.29 0.30 0.29 0.29 0.27 0.29 0.30 0.35 0.33 0.31 0.29 0.33 0.31 0.29 0.29 0.33 0.34 0.32 0.34 0.31 0.31 0.31 0.27 0.26 0.32 0.31 0.30 0.29 0.35 0.35 0.36 0.36 0.32 0.35 0.35 0.29 0.28 0.19 0.17 0.14 0.09 0.08 0.08 0.09 0.12 0.15 0.19 0.22 0.26 0.28 0.29 0.29 0.29 0.31 0.29 0.26 0.28 0.25 0.31 0.28 0.24 0.23 0.30 0.36 0.51 0.61 0.72 0.81 0.82 0.84 0.86 0.89 0.85 0.80 0.85 0.88 0.92 1.03 1.00
0.40 0.32 0.41 0.43 0.47 0.47 0.44 0.46 0.39 0.34 0.31 0.29 0.27 0.29 0.30 0.26 0.29 0.33 0.33 0.30 0.32 0.31 0.31 0.32 0.32 0.32 0.30 0.30 0.28 0.29 0.29 0.33 0.28 0.28 0.29 0.28 0.30 0.32 0.34 0.35 0.34 0.32 0.32 0.31 0.28 0.25 0.18 0.19 0.17 0.15 0.12 0.11 0.14 0.18 0.23 0.25 0.24 0.21 0.24 0.27 0.28 0.29 0.30 0.30 0.29 0.26 0.24 0.27 0.27 0.28 0.29 0.29 0.31 0.46 0.57 0.65 0.78 0.80 0.81 0.83 0.82 0.84 0.88 0.91 0.91 0.92 0.92 1.02
0.48 0.35 0.39 0.33 0.45 0.43 0.41 0.43 0.38 0.37 0.31 0.34 0.26 0.30 0.27 0.28 0.29 0.30 0.35 0.27 0.32 0.29 0.29 0.29 0.29 0.25 0.25 0.25 0.25 0.26 0.30 0.29 0.32 0.29 0.28 0.28 0.29 0.30 0.33 0.32 0.31 0.31 0.30 0.27 0.27 0.24 0.18 0.15 0.18 0.17 0.17 0.18 0.20 0.20 0.23 0.25 0.22 0.22 0.22 0.24 0.28 0.28 0.28 0.28 0.27 0.25 0.29 0.27 0.25 0.32 0.33 0.27 0.30 0.48 0.60 0.66 0.78 0.85 0.88 0.89 0.90 0.90 0.94 0.96 0.96 0.95 0.96 0.98
0.35 0.41 0.50 0.49 0.39 0.34 0.36 0.36 0.41 0.38 0.39 0.37 0.32 0.35 0.29 0.28 0.28 0.26 0.32 0.33 0.33 0.32 0.25 0.28 0.28 0.28 0.27 0.24 0.24 0.20 0.24 0.25 0.27 0.25 0.29 0.28 0.27 0.27 0.25 0.28 0.26 0.28 0.27 0.24 0.26 0.19 0.15 0.13 0.20 0.18 0.18 0.20 0.21 0.21 0.22 0.22 0.23 0.23 0.23 0.23 0.25 0.28 0.28 0.27 0.29 0.30 0.29 0.26 0.25 0.30 0.32 0.30 0.36 0.55 0.64 0.71 0.78 0.85 0.89 0.91 0.95 0.98 1.01 1.04 1.03 0.99 0.95 0.97
0.46 0.44 0.47 0.56 0.40 0.43 0.42 0.42 0.42 0.38 0.37 0.38 0.36 0.36 0.31 0.30 0.28 0.31 0.31 0.30 0.31 0.30 0.30 0.23 0.26 0.28 0.28 0.28 0.25 0.21 0.22 0.18 0.19 0.26 0.24 0.24 0.24 0.22 0.18 0.22 0.24 0.26 0.24 0.22 0.23 0.23 0.18 0.15 0.19 0.17 0.15 0.17 0.18 0.19 0.21 0.20 0.21 0.23 0.23 0.22 0.24 0.26 0.28 0.30 0.31 0.33 0.32 0.29 0.31 0.32 0.34 0.35 0.56 0.59 0.68 0.74 0.83 0.88 0.95 1.01 0.99 0.99 1.01 1.03 1.03 1.01 1.00 1.01
0.36 0.38 0.35 0.49 0.46 0.43 0.45 0.44 0.42 0.39 0.35 0.39 0.33 0.36 0.35 0.32 0.30 0.33 0.35 0.32 0.27 0.30 0.35 0.28 0.28 0.30 0.30 0.29 0.27 0.23 0.25 0.26 0.25 0.21 0.27 0.24 0.23 0.23 0.19 0.20 0.20 0.23 0.23 0.20 0.21 0.24 0.16 0.16 0.21 0.18 0.15 0.15 0.18 0.20 0.19 0.19 0.19 0.17 0.21 0.24 0.25 0.25 0.27 0.32 0.34 0.34 0.37 0.34 0.34 0.35 0.37 0.40 0.67 0.75 0.73 0.80 0.84 0.86 0.95 1.00 0.96 0.99 1.04 1.04 1.02 1.02 1.03 1.05
0.55 0.58 0.55 0.41 0.36 0.42 0.46 0.45 0.42 0.39 0.35 0.37 0.34 0.38 0.36 0.36 0.33 0.36 0.35 0.40 0.34 0.30 0.32 0.28 0.30 0.29 0.30 0.28 0.27 0.26 0.29 0.29 0.28 0.27 0.29 0.26 0.19 0.26 0.18 0.21 0.23 0.17 0.19 0.19 0.21 0.22 0.19 0.17 0.21 0.18 0.12 0.12 0.17 0.17 0.18 0.18 0.17 0.16 0.17 0.22 0.24 0.26 0.24 0.31 0.32 0.47 0.39 0.39 0.42 0.38 0.38 0.49 0.64 0.74 0.78 0.76 0.82 0.80 0.86 0.95 0.96 0.98 1.04 1.05 1.02 1.02 1.05 1.09
0.64 0.66 0.65 0.49 0.34 0.42 0.38 0.42 0.42 0.39 0.33 0.38 0.38 0.38 0.36 0.35 0.38 0.39 0.32 0.40 0.41 0.39 0.36 0.33 0.31 0.30 0.28 0.27 0.26 0.28 0.32 0.32 0.31 0.32 0.31 0.30 0.28 0.26 0.25 0.23 0.23 0.21 0.20 0.21 0.25 0.21 0.22 0.19 0.16 0.17 0.12 0.12 0.17 0.18 0.17 0.16 0.15 0.12 0.15 0.19 0.26 0.32 0.37 0.40 0.48 0.50 0.48 0.51 0.45 0.43 0.51 0.64 0.69 0.75 0.70 0.71 0.78 0.84 0.88 0.92 0.97 1.00 1.04 1.08 1.06 1.02 1.04 1.10
Wind_Speed
17 17 17 17 17 17 16 16 16 16 16 15 15 15 15 15 15 15 15 14 14 14 14 13 13 12 12 12 12 11 11 11 10 10 11 11 12 12 11 11 12 13 13 14 14 14 14 14 14 15 14 14 12 11 10 10 7 5 4 3 2 0 1 1 2 2 4 6 8 10 10 11 12 10 10 10 8 7 7 8 9 8 9 11 10 15 19 18
18 18 18 18 18 17 17 16 16 16 16 16 15 15 15 15 15 15 15 15 15 14 14 13 13 12 12 12 12 11 11 11 10 10 11 11 11 13 13 12 12 13 13 14 15 14 14 14 15 15 14 13 12 12 10 9 8 6 4 3 3 2 2 2 2 2 3 6 9 9 10 12 11 11 11 10 9 8 8 9 10 10 11 12 14 17 18 18
19 19 19 19 19 18 18 17 17 17 16 16 16 16 16 16 15 15 15 15 15 15 14 13 13 12 12 12 12 11 11 11 10 10 10 10 12 13 13 13 13 14 13 14 15 14 13 14 15 15 14 13 12 12 11 10 9 7 5 4 3 2 2 2 3 2 4 7 9 8 10 11 11 11 11 10 10 9 9 10 11 12 13 14 16 17 18 19
21 21 21 20 20 19 19 18 18 18 17 17 17 16 16 16 16 16 15 15 15 15 14 13 13 12 12 12 12 11 11 10 11 10 9 10 12 13 14 14 14 14 13 14 14 14 13 14 15 14 13 12 12 12 11 10 9 8 7 5 3 3 2 1 3 3 4 7 8 8 10 11 11 12 11 11 10 8 9 10 11 13 15 16 17 17 18 19
22 22 22 21 21 20 20 19 19 18 18 18 17 17 17 17 16 16 16 15 15 15 14 14 13 13 12 12 11 11 11 10 11 11 10 11 12 13 14 14 14 14 13 13 14 14 13 13 15 14 13 12 12 12 12 12 11 8 8 7 4 3 2 1 3 3 4 6 7 8 10 11 11 11 11 12 9 8 9 9 10 13 15 17 17 18 18 18
23 23 22 22 22 22 21 20 20 19 19 19 18 18 18 17 17 17 16 16 15 15 15 14 14 13 13 12 12 11 11 11 12 12 11 12 13 14 14 15 15 14 14 14 15 15 13 13 14 14 13 12 12 12 11 12 12 9 8 8 6 5 3 2 3 3 4 6 6 8 9 11 12 11 11 12 9 8 10 8 10 14 16 17 17 18 18 17
23 23 23 23 22 22 22 22 21 20 20 20 19 19 18 18 18 18 17 16 15 15 15 15 14 14 13 12 12 12 12 12 12 12 12 13 14 14 15 15 15 15 15 14 15 15 15 14 14 15 13 12 12 13 12 12 13 11 8 7 7 7 5 4 5 4 4 5 6 7 8 10 11 11 12 12 9 10 11 8 10 14 16 17 16 17 18 17
24 24 23 23 23 23 22 22 22 21 21 21 20 19 19 19 19 19 18 17 16 15 15 15 15 14 13 13 13 12 13 13 13 12 12 13 14 15 15 15 16 16 16 15 15 16 16 15 15 15 13 13 13 12 13 12 12 12 10 8 7 7 7 6 6 5 5 4 6 7 7 9 10 11 12 12 11 11 11 9 10 14 16 16 16 17 17 17
24 24 24 24 24 23 23 22 22 22 22 22 21 21 20 20 19 19 19 18 17 16 15 15 14 13 13 13 12 12 14 14 14 13 12 12 13 15 16 16 16 17 16 16 16 16 17 16 16 15 13 13 13 12 12 12 11 12 11 10 8 8 8 8 7 7 6 4 5 5 6 10 11 11 11 12 13 12 12 11 12 15 17 16 16 17 17 17
24 24 24 24 24 24 23 23 23 23 23 23 22 22 21 20 20 20 19 19 18 17 16 15 14 13 13 13 12 12 14 13 14 14 14 13 13 14 16 17 17 17 17 16 16 17 18 17 16 15 12 11 12 12 13 12 11 11 11 11 11 10 9 9 8 8 7 5 5 3 5 11 12 11 10 12 14 13 13 13 13 15 16 16 15 16 16 17
25 25 25 25 24 24 24 23 23 23 23 23 23 23 22 21 20 20 19 19 18 17 16 15 14 13 13 13 13 13 14 13 14 15 14 15 14 14 16 17 18 18 17 17 17 18 19 17 15 14 13 11 11 11 12 12 10 10 10 10 10 10 10 9 9 10 8 6 5 5 6 9 10 10 11 14 14 13 15 14 14 16 16 15 15 16 17 17
25 25 25 25 25 25 24 24 24 24 24 24 24 23 22 21 20 20 19 19 18 17 16 15 14 14 13 14 15 14 13 13 14 14 15 15 15 15 15 16 18 19 19 17 17 19 20 18 15 14 13 11 10 10 11 11 11 11 11 9 8 8 9 9 8 10 9 7 7 7 6 6 9 10 11 14 14 14 16 14 15 17 16 15 14 15 17 17
25 25 25 26 25 25 24 24 24 24 24 24 24 23 22 22 21 20 19 19 18 17 16 16 15 14 14 14 15 14 13 13 14 15 15 15 15 15 15 15 17 19 20 18 18 19 19 18 17 16 14 12 11 12 12 12 12 12 11 9 9 8 8 9 8 10 9 8 10 7 4 5 8 10 12 14 14 15 16 14 15 17 16 15 14 15 16 17
26 26 26 26 26 25 25 24 24 24 24 23 23 22 22 21 21 20 19 18 18 17 16 16 15 15 14 14 14 14 14 14 14 15 16 16 15 15 15 15 16 18 20 19 18 18 19 19 18 17 15 14 14 13 12 11 11 11 11 9 9 9 9 10 9 11 10 9 12 8 3 6 8 10 12 13 13 15 16 15 16 16 16 15 14 15 16 17
26 26 26 26 26 25 24 24 23 23 23 22 22 22 21 21 21 20 19 18 17 16 16 16 15 15 14 15 14 14 14 14 14 15 16 16 16 15 16 16 16 17 19 19 18 18 19 18 18 17 16 16 15 14 11 11 10 11 11 10 10 10 10 10 11 12 10 9 13 9 5 6 7 9 12 13 13 15 16 16 16 17 17 15 15 15 15 17
26 26 26 26 25 24 24 23 23 23 22 20 21 20 20 20 19 18 18 17 16 16 16 15 15 15 14 15 15 14 14 14 14 15 16 17 17 16 16 17 16 17 18 19 19 18 18 17 17 17 17 16 16 14 11 11 11 10 10 11 11 11 10 11 11 13 11 10 13 11 7 6 7 9 12 13 14 14 15 16 17 17 17 16 15 15 15 16
27 27 26 26 25 24 23 23 22 22 20 19 19 19 18 18 17 17 17 16 16 16 16 15 15 15 14 15 14 14 14 14 14 15 16 17 17 16 16 16 16 17 18 18 19 18 17 17 16 16 16 16 15 14 12 12 12 11 10 11 11 11 11 12 12 13 13 12 14 13 10 8 8 10 12 14 14 14 15 17 17 17 18 16 15 15 16 16
27 27 26 25 25 23 22 22 22 20 19 18 18 17 16 15 15 15 15 15 16 16 16 16 16 14 15 15 14 14 14 14 14 14 15 16 17 17 17 17 16 17 17 17 18 18 18 17 16 15 15 15 15 14 14 15 14 12 11 11 11 10 11 12 11 13 14 14 15 15 13 11 9 10 12 13 14 14 16 17 17 18 19 17 15 16 16 17
28 27 26 25 24 23 22 22 21 19 18 16 15 15 15 14 15 15 15 15 16 16 16 17 17 15 15 15 15 14 14 14 14 14 15 15 16 16 16 17 17 17 18 17 18 18 18 17 16 16 15 15 16 16 17 17 15 14 12 12 13 11 11 12 11 12 14 14 16 17 16 14 12 12 12 13 14 14 15 16 16 17 19 18 16 16 16 17
28 27 26 25 24 23 22 21 20 19 17 15 14 14 14 14 15 15 15 16 17 17 17 18 18 17 16 16 15 14 13 14 14 14 15 15 16 16 15 16 16 17 18 18 18 18 18 17 18 18 17 17 16 17 18 18 16 15 14 13 13 13 13 13 12 12 13 14 16 17 17 16 15 14 14 14 14 14 15 16 16 17 18 18 17 17 17 17
28 27 26 25 23 22 21 20 19 18 15 13 13 13 14 14 15 16 16 16 17 18 18 18 18 18 18 17 16 14 13 14 14 14 15 15 16 16 15 15 16 17 19 19 18 17 17 18 19 19 18 17 17 17 17 18 17 16 15 14 14 13 14 14 13 13 14 14 14 16 17 17 17 16 15 15 15 14 16 17 17 17 17 17 17 18 18 17
28 27 26 25 23 22 20 19 18 17 14 12 11 12 13 14 15 16 15 16 17 18 18 17 17 19 18 17 17 15 15 15 13 13 15 15 15 16 16 15 15 17 18 18 17 17 17 18 19 19 18 17 17 17 17 18 18 17 16 15 14 14 14 13 12 11 12 14 14 15 17 17 17 16 16 17 16 15 16 18 17 18 18 17 18 18 18 18
28 27 26 24 22 21 20 19 18 16 13 11 10 11 13 14 14 15 15 16 17 17 17 17 17 18 17 16 16 16 16 16 14 14 15 15 15 16 16 15 15 17 17 18 18 17 17 18 19 19 17 17 17 16 17 17 18 18 17 16 15 14 13 13 12 10 9 11 13 13 14 16 16 15 16 18 17 15 16 17 17 18 19 18 18 18 19 19
28 27 25 23 22 20 19 18 16 14 12 11 10 10 11 13 14 14 14 15 16 16 16 17 17 17 17 16 15 15 16 15 14 15 15 15 15 15 15 15 14 15 17 18 18 18 18 18 18 18 17 18 18 17 17 17 17 18 19 18 16 15 15 14 12 11 10 10 13 13 13 15 17 17 18 18 18 16 17 18 18 19 20 18 18 19 20 20
27 26 24 22 20 19 18 15 13 12 12 11 10 10 10 11 13 13 13 13 15 15 15 16 16 16 16 15 15 15 14 14 14 15 16 16 15 14 15 15 15 16 17 17 17 17 18 17 17 17 18 18 18 18 18 17 17 17 19 20 18 16 17 16 12 11 12 12 14 13 12 14 16 18 19 18 18 18 17 18 19 19 20 20 19 20 21 21
27 25 23 21 19 18 16 12 11 11 11 10 10 10 10 11 12 13 12 12 13 15 14 15 15 15 15 15 15 14 12 13 14 15 15 15 15 15 15 15 15 16 17 17 16 17 17 16 16 17 18 18 18 18 18 18 17 17 17 19 19 19 18 17 14 12 13 13 13 14 14 14 15 18 19 19 19 19 18 18 19 20 21 21 20 21 21 22
26 24 23 20 18 16 12 10 10 10 9 10 10 10 10 10 10 12 12 10 11 14 14 14 13 14 15 15 15 14 13 14 14 14 14 14 14 15 15 16 16 16 16 15 15 16 16 15 16 17 18 18 18 18 18 18 18 17 16 17 18 19 19 17 16 14 14 13 12 14 14 13 14 17 18 19 19 20 20 19 20 20 21 21 22 22 22 23
25 23 22 19 17 14 11 10 10 8 8 9 9 9 9 9 9 11 11 10 11 12 13 13 13 13 14 15 15 14 14 15 14 13 14 13 13 14 15 16 18 17 16 15 16 16 16 15 15 16 17 18 18 18 18 17 18 18 16 16 17 19 19 18 16 15 14 13 14 16 15 12 13 15 16 18 20 20 21 21 20 20 21 22 22 23 23 23
24 23 20 18 15 12 9 8 8 8 8 8 8 9 9 9 9 10 10 10 11 11 12 12 11 12 13 13 14 13 13 14 13 13 13 12 12 13 15 17 18 18 16 15 17 17 16 17 16 14 15 17 17 18 17 17 19 18 15 16 17 18 19 18 17 16 14 14 16 17 17 14 12 14 16 17 19 20 21 20 19 20 21 22 22 23 24 24
23 21 19 15 12 9 7 8 8 7 7 7 7 8 8 8 9 9 9 10 11 11 12 12 11 12 12 12 12 12 12 13 13 12 11 11 10 11 14 15 15 16 16 15 17 18 17 16 15 14 15 17 18 17 16 17 19 19 16 16 16 16 18 17 16 16 14 15 16 18 20 17 12 13 16 17 17 18 18 17 17 19 21 22 23 23 24 24
22 19 16 12 9 7 6 6 6 5 5 5 5 6 7 8 8 9 9 10 11 11 11 11 11 11 11 12 12 12 12 12 12 12 11 11 9 8 11 13 14 14 14 14 15 17 16 14 15 15 14 14 16 16 15 15 16 16 16 16 16 16 16 16 16 16 15 16 16 17 19 19 15 14 15 16 17 17 16 16 16 18 20 22 22 23 24 24
20 17 13 10 7 7 5 5 4 4 3 3 4 6 7 7 7 8 9 9 9 11 11 12 11 11 11 12 12 11 11 11 11 12 12 11 10 10 10 12 14 14 13 13 14 15 15 15 15 16 13 11 14 16 16 15 14 14 15 15 16 15 15 16 17 17 16 16 16 16 17 18 18 16 15 16 17 16 16 16 16 18 20 21 22 23 23 24
18 14 11 8 6 6 4 3 3 3 3 3 5 7 7 7 7 7 8 9 9 11 12 11 11 10 11 11 11 11 10 10 11 11 12 12 11 11 10 10 11 13 13 13 13 14 16 16 14 14 14 12 13 15 16 17 16 15 15 15 16 15 14 16 17 16 16 17 15 15 15 16 16 16 16 16 16 16 17 17 17 18 20 21 22 23 22 23
16 12 9 7 5 4 3 2 1 2 2 3 6 7 7 7 7 6 7 8 10 10 11 11 10 9 9 10 11 12 10 10 11 11 11 12 11 12 11 9 9 11 12 12 12 14 15 15 14 14 14 13 12 14 17 19 18 17 17 17 16 16 16 17 18 17 17 16 15 15 15 16 16 15 15 15 15 16 17 17 17 18 20 21 21 22 23 23
14 10 7 6 5 3 1 1 1 2 2 4 7 7 6 6 6 6 6 8 9 9 9 10 9 8 8 9 10 11 12 11 11 11 10 11 12 11 12 11 10 11 12 12 12 13 14 15 15 14 14 13 12 14 16 18 18 18 17 17 17 17 17 17 17 18 17 15 15 16 16 16 16 14 12 13 14 14 15 16 16 17 19 20 20 21 23 24
12 9 6 5 5 3 2 2 1 2 3 5 7 7 6 5 5 6 6 7 8 8 9 8 7 8 9 9 9 10 11 12 13 12 11 11 11 10 11 11 11 11 12 12 12 12 13 15 16 14 14 13 13 14 13 14 18 18 16 17 19 19 18 18 17 17 16 15 16 18 17 16 15 14 12 12 12 12 12 14 16 17 18 19 20 21 22 24
10 8 6 5 5 4 4 3 3 3 3 6 7 6 5 5 4 5 6 6 7 7 8 9 8 8 10 10 10 10 10 11 12 12 11 11 11 10 11 12 11 10 11 12 12 12 13 15 15 14 15 14 13 14 13 12 15 17 17 18 19 18 18 18 17 16 15 16 17 18 17 14 13 15 14 13 12 13 13 13 15 18 19 20 20 21 22 23
9 7 6 5 5 4 4 4 4 4 3 5 7 6 5 4 3 4 5 5 6 6 7 9 8 8 9 10 9 9 10 10 11 11 11 11 11 11 12 12 12 10 11 12 13 13 13 15 15 14 15 15 13 13 14 13 13 15 17 18 17 17 17 17 17 17 17 18 18 18 16 13 12 14 14 14 14 15 15 15 15 17 20 22 21 21 21 21
9 7 6 6 5 3 4 4 3 3 3 5 6 5 4 4 2 2 3 4 6 6 6 7 7 7 8 9 9 7 7 8 10 10 10 10 11 11 11 12 13 12 11 11 13 14 13 13 16 15 15 15 14 13 14 15 14 14 16 16 16 17 18 17 17 18 17 18 18 17 15 15 15 14 14 14 15 16 17 17 17 18 22 24 24 23 22 21
9 7 6 6 5 3 3 3 3 3 3 4 5 4 3 3 2 1 2 3 5 6 6 6 6 7 7 7 8 7 6 7 8 9 9 9 10 11 10 11 13 13 12 11 12 14 14 14 16 16 15 15 15 14 14 16 16 15 14 15 15 17 18 18 17 17 17 17 17 16 15 16 17 15 15 15 15 16 17 18 18 19 21 25 27 25 24 23
8 7 6 7 5 3 3 3 3 3 3 3 4 4 3 3 2 0 1 2 4 6 6 6 6 6 6 6 6 6 6 6 6 7 7 8 9 10 10 10 12 12 12 12 12 13 14 14 15 15 15 14 16 16 16 16 17 15 14 14 14 15 16 17 17 17 16 17 17 17 17 18 16 15 16 15 15 17 18 18 19 19 20 24 28 27 26 25
8 6 6 8 6 4 4 4 3 3 3 3 3 3 3 2 2 1 0 1 3 4 5 6 6 6 6 6 6 6 6 5 5 6 7 7 7 9 9 9 9 11 11 12 14 14 14 14 14 15 15 16 18 18 16 16 17 16 15 15 15 15 15 16 18 18 17 17 18 17 18 19 16 14 15 15 15 16 17 17 18 18 18 20 26 27 26 27
7 6 6 8 7 5 6 5 3 3 4 3 3 3 2 2 1 1 1 1 2 4 4 5 6 6 5 5 5 6 6 5 4 5 7 7 7 8 9 8 8 9 10 11 13 13 13 14 14 15 16 16 17 17 16 15 16 16 16 15 16 16 16 17 19 19 18 17 16 16 19 20 17 14 15 16 15 15 16 16 17 17 16 16 21 25 26 26
6 5 6 8 9 7 6 5 4 5 5 4 4 3 2 2 2 1 0 1 1 3 5 5 5 6 6 5 5 5 6 6 5 5 6 7 7 8 8 8 8 9 9 11 12 13 13 14 14 14 14 15 16 16 17 17 16 17 17 17 17 17 16 18 19 18 18 18 16 18 21 21 18 16 15 15 15 14 15 15 15 15 15 14 15 19 21 23
5 4 4 7 9 8 6 5 5 5 5 6 5 4 3 4 4 4 3 3 3 3 4 4 5 5 5 5 4 4 4 5 6 6 6 6 7 8 7 8 8 8 8 9 10 11 12 13 13 13 14 16 17 17 18 19 18 18 19 18 18 17 16 17 18 17 19 19 18 20 22 21 20 17 15 15 14 14 14 14 12 12 13 14 14 13 15 18
4 4 3 4 7 7 5 5 5 5 5 5 6 5 4 4 4 5 5 4 4 4 4 3 3 4 4 4 5 4 3 4 5 6 6 7 8 8 8 8 8 7 7 7 8 10 11 11 12 13 14 17 19 19 20 20 19 20 20 20 19 19 18 17 18 18 20 19 19 21 22 21 20 17 15 14 14 14 13 12 11 10 11 13 14 14 13 14
4 3 2 2 3 4 4 4 4 4 3 4 5 4 4 4 3 3 4 3 3 3 2 1 1 3 4 4 5 5 5 5 5 6 7 8 9 9 9 8 8 7 7 8 9 9 10 10 10 11 13 16 18 20 20 20 20 21 21 21 21 21 20 19 19 21 20 19 21 22 21 20 20 18 17 16 15 15 14 11 10 10 10 11 13 14 13 13
4 2 2 1 1 1 1 2 3 3 3 3 3 3 3 4 3 2 2 2 2 2 1 0 1 1 3 4 5 5 6 6 6 7 8 9 9 10 9 9 9 8 8 9 10 9 10 10 11 11 13 14 16 18 19 20 21 22 21 22 22 21 21 21 22 23 22 21 23 24 22 21 21 19 18 17 17 17 16 13 11 10 10 10 11 12 13 14
6 3 3 2 1 1 1 1 3 4 2 1 2 1 1 2 2 1 0 0 1 1 0 0 1 1 1 3 4 4 5 6 6 8 9 9 10 10 10 10 11 10 9 10 10 9 10 11 11 11 12 13 15 16 17 18 20 21 22 22 22 22 22 22 23 24 24 24 25 25 23 22 21 20 19 18 18 18 17 14 12 10 10 11 11 12 14 15
8 5 4 3 3 2 2 2 2 2 1 0 1 0 1 1 1 1 1 1 1 2 2 1 1 2 2 3 3 4 5 6 7 8 9 9 10 11 10 11 12 11 11 11 11 10 10 11 12 11 11 13 14 14 15 17 19 22 22 22 21 22 23 23 23 23 23 24 25 25 24 22 21 20 19 18 18 18 16 15 14 12 11 11 12 13 14 14
10 7 5 4 3 3 3 2 1 1 0 1 1 2 2 2 2 2 2 2 2 3 3 2 2 3 3 3 3 5 6 7 7 9 9 9 10 11 11 12 12 12 11 11 11 11 11 12 12 11 12 14 14 14 15 16 18 19 21 21 21 22 22 23 23 22 22 23 24 23 22 22 22 21 20 19 18 17 16 16 16 15 13 12 13 13 14 15
10 8 7 5 4 4 3 2 2 1 1 2 2 2 3 3 4 3 3 4 3 2 3 2 2 3 4 4 5 6 8 8 9 10 10 10 11 12 12 13 12 12 12 12 12 13 13 13 13 13 13 15 16 15 15 15 15 17 19 20 22 22 22 23 22 21 22 23 24 23 22 22 23 22 21 21 19 17 17 17 17 18 17 15 14 14 14 15
Wind_Direction
311 309 307 305 304 303 302 301 300 299 298 296 293 290 287 286 284 284 284 283 282 281 278 276 273 270 266 263 261 260 259 257 253 242 237 234 225 219 211 202 198 198 197 194 194 195 198 201 203 202 200 203 207 211 212 215 213 197 196 197 201 182 114 118 136 146 148 156 161 164 167 164 164 166 165 160 150 146 144 139 146 149 143 143 144 147 149 150
311 309 307 305 303 301 300 299 298 298 298 296 293 290 287 284 283 283 282 282 281 279 277 274 270 268 264 262 260 258 257 252 247 239 235 230 219 212 207 201 195 196 197 195 194 194 196 200 200 199 199 203 207 208 208 208 203 196 194 185 192 176 127 122 132 157 172 167 164 167 170 167 168 170 168 163 156 153 148 142 143 143 141 141 145 149 150 151
310 309 307 305 303 300 299 297 296 296 296 296 293 290 287 284 282 281 280 279 279 276 274 271 268 266 263 261 259 256 252 244 238 235 234 222 212 209 204 201 196 196 199 198 196 194 196 196 196 196 196 204 207 207 207 201 197 198 197 189 198 177 125 117 123 151 169 161 165 172 174 170 171 173 171 163 156 160 160 152 148 147 147 147 151 153 153 153
308 307 305 303 302 299 298 296 294 293 293 293 292 289 286 284 282 280 279 277 276 273 270 267 265 264 263 260 257 253 246 239 233 231 228 214 208 207 204 202 199 198 200 200 197 195 195 192 192 194 196 204 208 208 209 202 196 193 194 199 198 163 136 133 122 135 154 156 166 172 173 173 172 173 172 163 158 166 170 160 154 153 152 153 155 155 155 157
307 305 303 302 299 297 296 295 294 292 291 290 290 288 285 283 281 280 279 276 274 270 266 263 261 262 261 257 253 248 240 235 232 228 223 213 208 206 203 203 201 198 199 200 198 195 196 191 190 195 198 203 206 206 207 205 202 198 199 208 210 175 164 152 123 128 150 155 161 169 174 174 172 173 174 172 169 170 167 161 158 157 157 157 157 156 157 160
307 305 302 300 298 295 293 293 292 291 290 289 288 286 283 281 279 278 277 276 273 268 264 260 258 259 258 254 249 242 234 232 230 226 220 213 209 205 203 204 202 199 200 202 200 197 196 193 192 196 198 202 205 203 205 205 204 204 204 209 215 205 196 173 141 122 139 155 162 169 172 171 171 174 178 180 179 169 164 159 158 159 159 159 158 158 160 162
308 306 303 300 297 294 292 291 290 289 288 288 287 285 282 279 276 276 275 274 271 267 263 258 256 256 255 249 244 239 233 232 229 223 218 213 210 206 202 204 203 201 201 203 202 199 196 194 195 197 198 202 203 204 209 209 206 206 207 211 215 210 205 190 172 150 138 151 164 166 170 177 177 177 179 182 181 172 168 162 160 160 159 161 161 162 162 162
309 307 304 301 298 295 292 289 288 287 287 286 285 284 281 277 274 273 272 270 268 265 261 256 254 253 251 245 241 239 234 230 225 220 216 213 211 207 203 204 204 203 203 203 203 200 197 196 197 197 197 202 203 204 211 212 210 209 212 221 220 211 205 194 184 176 149 134 160 167 178 187 183 178 177 182 182 176 172 166 163 161 161 164 164 165 165 163
310 307 305 302 300 297 293 290 287 286 286 285 284 283 280 275 272 271 269 267 264 262 258 254 251 249 247 242 238 236 231 226 222 217 213 213 212 209 207 207 205 203 204 204 203 201 200 198 198 196 195 203 206 208 213 211 210 212 219 228 229 214 200 194 190 185 170 142 156 172 191 187 181 178 179 184 180 174 173 169 167 164 165 168 166 168 169 166
311 308 306 303 300 298 295 291 288 286 285 284 282 281 278 273 271 269 266 263 261 258 254 250 247 244 243 239 235 232 227 224 222 217 215 214 211 210 211 210 206 203 203 204 202 202 201 197 196 197 199 206 207 210 216 213 214 223 225 233 234 214 198 196 192 185 178 163 159 164 186 181 179 183 184 185 179 174 174 172 171 168 168 170 168 170 171 169
312 309 307 304 302 299 296 293 290 287 284 283 281 278 275 271 269 267 264 260 257 254 250 245 242 240 239 236 233 231 227 226 223 217 216 215 211 212 212 210 208 204 203 204 204 203 201 199 199 200 201 205 212 218 219 215 222 233 232 237 230 203 192 195 190 185 180 179 172 129 142 170 180 187 184 180 179 178 177 175 176 172 171 174 170 170 173 172
312 310 308 305 303 301 298 295 292 288 285 282 279 276 272 269 267 264 261 258 253 250 246 240 238 238 239 237 232 229 227 227 222 217 217 214 214 216 213 210 209 206 204 204 206 204 203 204 205 206 205 208 216 220 221 225 233 234 230 231 216 194 191 195 191 189 186 188 182 137 125 170 183 183 177 175 178 178 176 176 177 173 173 176 172 171 174 174
312 310 308 306 304 303 300 297 294 290 286 282 278 274 269 267 264 260 257 253 249 245 241 236 236 238 238 235 230 227 228 227 222 219 216 214 216 217 213 210 210 208 205 204 205 204 203 206 208 211 214 216 217 219 225 232 233 225 223 219 206 202 203 199 192 191 190 190 187 167 147 178 180 175 171 174 177 176 178 178 177 175 174 177 175 173 176 176
312 310 309 307 306 304 301 297 294 290 286 282 276 272 268 265 261 257 252 248 244 240 236 234 236 236 234 232 228 228 228 224 220 218 215 213 214 213 210 210 209 207 205 204 203 202 202 206 211 216 220 220 219 223 227 224 221 217 216 215 207 207 205 200 194 188 190 193 193 192 181 179 178 174 171 174 176 177 181 181 179 178 177 177 177 176 177 178
313 311 310 308 307 305 301 297 294 290 287 282 276 272 268 263 257 253 248 242 238 234 232 234 234 234 234 232 228 227 225 220 219 218 214 211 211 211 209 207 206 205 204 203 202 201 203 207 213 217 220 223 221 221 221 215 217 215 213 214 210 209 205 200 198 194 193 196 198 202 200 183 177 176 175 176 176 178 183 184 183 182 179 179 179 179 179 180
314 312 311 309 308 306 302 298 294 291 287 281 277 273 266 259 253 248 242 237 233 230 230 232 231 230 231 230 226 224 222 219 220 218 214 211 210 211 207 204 204 204 203 203 202 203 206 210 215 217 218 220 218 216 219 217 217 216 210 208 207 207 206 203 203 203 199 195 202 209 209 191 181 179 177 177 180 182 184 186 187 185 182 182 182 181 181 182
315 313 311 310 308 305 302 298 295 292 288 282 277 271 264 257 248 241 236 234 232 230 230 230 228 227 226 226 223 223 223 221 221 218 215 213 211 209 205 203 203 203 203 203 203 206 209 212 215 217 216 216 214 212 218 220 216 216 211 208 209 206 206 206 204 206 202 197 205 213 215 210 195 182 176 178 182 184 187 188 190 189 186 187 186 185 184 184
316 314 312 309 307 304 301 298 295 292 288 283 277 267 258 250 241 234 230 231 233 229 229 228 224 223 223 223 222 224 226 222 219 217 214 213 210 208 206 205 204 201 202 204 205 208 212 214 214 216 217 216 212 209 214 217 211 209 209 209 215 212 207 207 207 206 204 205 210 212 216 219 207 187 183 185 185 187 190 190 191 191 189 190 190 189 187 186
316 314 312 309 306 303 300 297 294 291 288 284 274 258 248 244 238 234 231 232 232 227 227 225 221 220 222 223 223 226 225 219 218 218 215 213 208 207 208 206 203 201 202 206 209 210 211 215 216 216 217 216 213 210 211 215 209 207 211 212 216 218 214 212 216 213 208 211 215 213 216 218 210 199 194 193 190 190 192 192 193 192 191 192 191 191 191 190
317 315 312 309 306 302 299 296 292 289 287 281 270 253 245 247 242 238 239 237 231 227 227 224 221 225 227 225 224 225 225 220 218 218 215 212 206 205 209 208 204 204 205 206 211 211 211 215 218 216 216 216 216 214 213 216 216 215 217 218 219 221 220 217 221 219 212 217 221 218 220 219 213 209 203 197 196 196 195 195 197 195 194 194 192 192 193 193
318 316 313 310 306 302 298 294 291 287 284 278 268 252 243 246 241 239 242 238 231 227 227 225 222 225 227 226 224 224 225 221 216 216 214 211 206 206 212 212 206 209 211 209 211 213 212 216 219 218 217 217 218 218 217 219 220 219 219 220 221 222 222 223 225 222 215 219 226 221 220 221 218 214 208 200 200 203 200 197 198 198 198 199 196 195 195 194
319 317 314 311 307 302 297 294 289 282 279 274 265 249 241 243 240 238 238 235 233 227 224 225 223 224 227 228 228 224 223 221 216 216 213 209 209 210 213 211 208 213 213 211 213 216 217 220 221 220 219 219 221 220 219 220 221 221 220 220 222 221 222 225 227 225 219 222 230 223 218 222 221 217 214 208 208 210 205 202 200 197 199 203 202 198 196 194
321 318 315 312 308 303 297 293 286 277 273 270 262 251 247 246 242 239 234 229 231 227 222 223 221 222 226 227 224 218 218 219 215 215 211 207 211 211 209 209 211 213 211 210 212 215 219 222 221 221 221 219 222 223 219 220 222 221 221 220 218 217 218 221 225 230 226 224 226 218 219 225 222 220 220 215 215 215 211 209 206 202 202 207 206 201 198 196
322 320 317 313 309 304 299 293 281 271 269 264 256 254 253 248 241 239 232 223 224 225 220 219 218 218 222 221 216 213 215 216 214 214 211 207 209 209 208 210 210 212 211 209 209 214 221 224 219 218 218 217 221 224 219 218 221 221 220 218 215 213 216 218 224 233 233 229 224 216 221 229 220 216 219 216 216 218 214 212 211 209 209 211 210 205 202 199
322 321 319 316 311 306 300 290 275 270 268 256 250 254 253 246 240 235 227 219 221 224 217 213 215 215 217 215 213 212 213 215 215 214 211 206 206 208 211 212 210 213 215 210 209 215 222 222 216 215 217 216 219 223 218 213 218 223 220 216 214 215 219 219 221 229 230 230 227 217 219 228 219 211 213 214 215 217 216 215 214 213 213 215 214 208 205 202
323 321 320 317 312 308 301 285 273 273 263 249 250 254 252 245 237 228 220 215 218 220 213 209 212 214 214 211 210 208 209 215 215 212 210 210 211 210 212 215 213 215 215 212 214 217 219 218 214 215 218 217 218 223 219 211 217 224 219 212 213 217 221 223 221 223 227 228 228 220 218 226 224 215 211 211 213 216 217 218 216 215 214 216 215 210 207 204
324 321 320 318 313 309 300 283 278 273 255 249 252 253 251 242 230 219 214 213 215 215 210 210 213 212 211 208 205 204 210 214 211 210 212 213 217 214 213 217 214 215 217 213 215 216 216 218 217 216 219 219 220 223 218 210 214 222 214 206 211 215 219 222 220 222 229 229 229 225 220 223 225 218 211 209 212 216 219 219 218 217 216 215 215 212 209 206
323 321 320 318 313 305 292 282 281 267 251 252 252 250 245 232 218 208 204 207 211 209 207 209 209 206 206 204 202 204 209 210 207 214 215 213 219 215 214 217 213 215 219 211 212 217 214 214 214 213 216 219 220 221 218 210 214 220 211 205 210 214 217 220 220 225 231 229 228 225 218 219 226 222 212 209 212 216 219 220 218 217 216 215 215 213 210 208
322 320 319 317 312 303 288 278 273 262 255 254 249 244 233 219 207 199 200 203 203 203 202 202 202 203 203 201 203 204 206 208 209 214 215 215 222 218 214 216 212 215 221 215 214 217 214 214 214 211 214 218 219 221 219 212 215 218 212 209 213 216 220 220 220 224 228 226 227 222 213 214 227 225 213 210 215 218 219 221 220 218 216 215 215 214 211 209
322 320 318 317 313 303 288 276 269 265 262 254 243 233 218 205 197 194 199 196 194 200 200 199 202 203 201 199 204 206 202 206 210 210 212 214 219 219 216 215 212 214 220 221 219 218 219 220 218 215 218 221 219 220 219 215 216 219 217 217 218 221 223 223 224 224 224 228 229 222 212 211 223 225 214 211 214 215 216 221 222 219 216 215 214 213 211 209
324 321 319 316 312 304 289 276 268 265 260 248 233 214 196 191 189 187 190 188 192 200 199 202 205 201 200 198 200 203 200 205 211 208 211 216 217 218 217 216 216 216 218 222 222 223 224 223 221 220 223 224 222 221 222 221 216 214 216 216 218 223 222 221 226 224 222 229 231 222 213 212 220 225 218 216 217 215 217 221 220 217 216 214 213 212 211 210
328 325 321 316 310 306 291 273 267 261 249 233 207 187 178 183 184 180 187 191 194 199 199 202 202 200 202 199 196 199 196 200 206 203 206 214 213 208 208 213 215 214 215 218 221 221 219 220 224 224 224 226 224 223 226 224 216 213 214 212 213 218 217 218 223 223 222 229 229 217 210 214 224 228 224 222 222 221 223 225 222 218 216 215 213 212 211 211
333 331 329 321 313 311 297 272 266 247 226 205 183 175 169 172 177 178 187 191 191 196 197 197 201 201 197 194 196 198 194 201 209 207 207 210 208 206 208 214 214 210 211 214 216 216 214 218 225 224 225 230 224 220 223 223 220 219 215 211 212 213 213 217 222 224 224 227 225 214 211 218 226 230 227 224 225 226 227 227 224 220 216 214 213 213 212 212
339 338 337 330 322 317 296 261 246 217 204 183 171 165 154 160 178 178 179 186 187 192 196 197 200 198 189 190 199 201 197 206 214 210 211 212 210 214 217 222 223 216 213 213 214 214 212 216 223 222 223 229 226 220 220 220 221 222 216 212 214 212 212 216 218 218 220 223 222 218 217 218 218 223 227 228 231 231 230 228 224 220 217 214 214 215 214 213
345 346 347 344 345 344 291 189 187 180 168 166 162 151 143 161 187 181 180 190 189 190 197 198 192 188 193 200 207 210 206 209 215 213 212 213 211 217 221 223 228 223 215 214 217 217 214 217 224 223 221 228 233 231 226 218 217 223 220 215 218 217 216 219 217 215 216 219 222 220 221 223 219 221 231 235 233 230 229 228 222 219 218 215 215 215 214 212
352 358 4 9 23 49 83 102 146 145 141 159 155 142 144 164 181 182 188 194 191 195 200 199 195 194 205 210 213 223 218 212 216 216 213 210 209 219 223 222 229 228 216 212 217 219 217 220 226 226 226 233 237 233 226 215 217 223 221 220 224 220 217 221 223 220 215 217 223 222 225 233 228 223 234 242 236 232 233 230 224 219 214 211 213 213 213 212
2 9 20 30 43 62 81 93 113 116 130 153 145 135 151 165 178 190 197 198 198 200 194 193 202 204 208 209 210 221 222 215 218 218 217 218 219 227 229 225 229 232 225 218 217 220 221 224 227 225 226 236 240 229 219 217 220 221 221 225 227 221 216 219 221 222 218 218 225 223 220 231 233 228 237 247 242 239 237 234 232 226 214 209 210 210 211 212
12 19 32 37 41 61 85 93 95 99 122 142 132 127 142 152 175 196 199 197 196 196 186 186 196 199 198 201 206 218 220 218 221 219 217 221 224 229 231 230 232 238 237 227 221 224 225 227 229 226 225 232 237 228 223 227 226 219 221 225 222 216 220 223 219 220 221 220 227 226 219 224 234 236 244 248 246 246 242 236 235 231 221 214 212 211 212 211
21 27 38 32 32 61 89 86 75 87 115 129 130 136 147 148 161 181 180 184 186 186 182 185 190 190 191 194 200 212 212 211 217 215 214 219 224 230 234 233 235 242 243 232 226 229 229 226 227 230 232 232 231 229 229 233 231 225 224 224 220 216 220 223 220 220 222 221 225 227 224 227 234 238 244 245 245 249 248 242 238 234 228 221 217 216 215 213
26 35 39 25 30 63 86 74 62 81 111 126 137 149 156 160 171 97 113 165 188 189 187 192 192 187 190 193 197 203 200 203 211 210 213 219 220 228 236 235 237 244 244 238 233 233 232 229 230 235 237 233 231 234 234 231 231 231 226 223 225 224 222 222 222 223 222 220 222 221 221 227 232 235 240 243 244 247 249 248 243 242 236 226 221 220 218 215
30 39 34 19 29 63 81 78 81 96 110 123 143 153 153 162 187 279 74 144 178 185 186 192 192 189 195 197 200 206 200 200 209 205 207 216 216 224 237 240 240 243 243 242 240 238 235 233 235 239 239 235 236 238 235 227 223 223 221 222 226 226 221 220 222 225 223 222 224 222 220 226 230 233 237 240 242 245 249 250 248 250 247 231 222 221 219 216
35 39 30 22 32 67 80 82 97 110 109 114 131 140 143 158 185 230 275 144 163 179 187 190 192 193 198 198 203 209 200 199 215 207 202 213 217 223 241 251 248 242 239 239 241 240 236 234 235 237 237 238 238 237 232 222 216 215 216 221 225 224 220 220 223 228 229 228 228 224 221 224 227 231 237 240 244 247 251 253 251 255 256 239 223 220 219 218
35 37 34 32 41 71 79 74 75 85 97 115 121 109 115 159 186 205 222 193 180 191 193 193 196 194 197 202 206 210 205 201 213 207 202 213 223 232 248 259 256 248 241 239 242 242 238 235 237 238 239 238 234 230 225 217 216 220 222 225 226 226 227 226 223 226 227 227 228 225 223 226 229 235 240 244 248 249 252 257 256 253 257 248 228 220 220 220
30 36 41 41 50 69 80 82 90 91 94 106 106 92 98 129 114 77 180 190 177 188 190 192 195 192 198 208 210 214 213 204 207 214 210 216 229 244 258 264 259 254 247 242 243 244 240 235 235 235 235 234 232 231 229 225 224 227 229 231 230 229 232 228 224 224 222 223 229 227 224 229 234 239 244 247 247 247 250 259 259 252 252 251 235 225 225 225
26 35 40 43 54 66 75 88 100 99 94 91 87 84 92 103 85 69 84 99 94 129 163 179 186 188 199 209 207 215 218 206 210 220 223 227 237 249 263 269 262 255 254 253 250 245 239 235 232 226 222 225 228 230 233 234 236 235 235 237 234 232 232 228 227 227 223 228 235 228 226 234 239 239 245 248 246 244 249 257 260 255 251 247 238 229 228 227
30 34 28 35 49 60 66 76 83 87 91 89 85 82 86 95 85 68 76 92 83 89 123 158 181 186 200 210 208 218 229 220 220 223 228 238 244 251 261 269 270 263 259 265 261 247 237 235 231 222 219 222 225 228 233 236 237 239 241 242 239 236 233 228 228 228 227 233 237 228 228 240 243 241 244 247 245 241 243 249 250 246 246 244 237 231 229 227
34 34 33 33 41 50 54 56 63 71 84 94 97 93 85 91 94 70 70 86 79 76 104 135 205 205 213 218 217 232 243 240 239 237 239 246 250 256 262 262 265 268 261 260 259 245 236 237 234 225 225 227 227 231 235 235 235 238 241 244 243 242 238 232 230 230 229 232 233 230 233 240 241 241 243 244 243 238 236 238 236 232 234 237 237 236 234 232
35 38 42 52 40 39 41 44 61 66 66 79 95 101 86 81 90 87 74 77 62 60 104 88 338 252 227 221 219 237 251 247 250 252 252 256 255 258 264 260 258 267 264 257 256 243 233 238 238 234 235 236 234 235 236 234 234 237 239 242 244 244 241 235 232 232 229 227 230 235 239 240 238 240 240 240 239 237 236 235 232 231 231 231 234 236 235 234
37 37 22 30 52 65 45 49 64 65 58 68 86 82 71 66 67 68 20 67 28 6 54 147 319 309 262 240 228 238 249 245 253 258 255 258 259 257 262 260 258 267 266 256 254 247 236 239 241 238 241 243 242 241 240 237 237 238 239 240 240 241 239 236 234 234 231 229 230 234 237 238 236 236 237 237 236 236 237 237 237 237 233 227 228 230 229 230
36 34 22 33 47 37 31 32 51 62 50 111 119 353 335 15 3 316 307 304 271 295 306 253 265 276 264 261 250 242 240 233 242 254 252 256 262 261 260 258 258 267 267 256 253 251 244 244 245 241 243 246 244 245 245 243 241 239 238 239 238 238 238 236 236 235 234 233 233 233 233 234 235 235 234 234 235 235 235 236 236 237 237 231 225 224 224 226
34 36 37 48 38 14 14 17 43 80 49 290 236 272 295 310 305 284 282 289 269 272 277 249 246 272 275 282 277 260 254 247 249 257 256 257 261 260 259 260 260 265 266 258 256 254 248 248 249 247 248 248 246 246 248 248 245 240 239 240 239 238 236 235 234 234 234 235 235 233 231 232 236 237 233 231 232 231 232 236 234 233 236 235 228 223 222 221
31 34 39 48 32 2 356 350 359 19 273 285 284 286 286 284 287 277 266 283 288 289 288 262 243 271 283 293 291 277 272 269 267 268 267 266 266 263 260 261 259 257 256 255 257 255 250 249 250 247 247 249 249 249 249 247 245 241 239 239 239 237 236 234 231 231 232 232 231 230 230 232 235 236 232 229 228 226 227 232 233 232 233 232 229 227 225 222